WA7ZVY-4 Weather Reports


time (UTC)temp
F
wind
direction
speed
knots
gust
knots
rain 1hr
in
rain 24hr
in
rain mn
in
humidity
%
barometer
mb
20260504070225 53 173 0.9 5.2 0.00 0.00 0.00 100 1011.4
20260504050611 54 196 3.5 8.7 0.00 0.00 0.00 98 1011.0
20260504050322 54 229 0.9 8.7 0.00 0.00 0.00 98 1011.0
20260504045815 54 261 1.7 6.1 0.00 0.00 0.00 98 1010.9
20260504045537 54 243 2.6 6.1 0.00 0.00 0.00 98 1010.9
20260504045308 54 243 5.2 6.1 0.00 0.00 0.00 98 1010.9
20260504045020 54 179 0.9 9.6 0.00 0.00 0.00 98 1010.9
20260504044801 54 0 0.0 9.6 0.00 0.00 0.00 98 1010.8
20260504044504 54 221 2.6 9.6 0.00 0.00 0.00 98 1010.8
20260504044254 54 0 0.0 9.6 0.00 0.00 0.00 98 1010.8
20260504043946 54 203 2.6 9.6 0.00 0.00 0.00 98 1010.7
20260504043749 54 218 4.3 9.6 0.00 0.00 0.00 98 1010.7
20260504043429 54 218 7.0 9.6 0.00 0.00 0.00 97 1010.6
20260504043241 54 204 1.7 4.3 0.00 0.00 0.00 97 1010.8
20260504042912 54 0 0.0 0.0 0.00 0.00 0.00 97 1010.7
20260504042733 54 208 3.5 10.4 0.00 0.00 0.00 97 1010.5
20260504042355 54 224 6.1 10.4 0.00 0.00 0.00 97 1010.5
20260504042226 54 224 4.3 10.4 0.00 0.00 0.00 97 1010.5
20260504041838 54 224 2.6 10.4 0.00 0.00 0.00 97 1010.4
20260504041719 54 190 6.1 10.4 0.00 0.00 0.00 97 1010.4
20260504041321 54 179 4.3 10.4 0.00 0.00 0.00 97 1010.3
20260504040804 54 196 7.8 11.3 0.00 0.00 0.00 96 1010.2
20260504040705 54 190 4.3 11.3 0.00 0.00 0.00 96 1010.2
20260504040158 54 264 4.3 11.3 0.00 0.00 0.00 96 1010.1
20260504035730 54 218 3.5 11.3 0.00 0.00 0.00 96 1010.2
20260504035651 54 218 3.5 11.3 0.00 0.00 0.00 96 1010.3
20260504035213 54 187 5.2 11.3 0.00 0.00 0.00 96 1010.0
20260504035144 54 187 9.6 11.3 0.00 0.00 0.00 96 1010.0
20260504034656 54 204 4.3 8.7 0.00 0.00 0.00 95 1009.9
20260504034637 54 204 7.0 8.7 0.00 0.00 0.00 96 1009.9
20260504034139 54 225 6.1 8.7 0.00 0.00 0.00 96 1009.9
20260504034130 54 222 7.0 7.0 0.00 0.00 0.00 96 1009.9
20260504033622 54 236 2.6 6.1 0.00 0.00 0.00 95 1009.8
20260504033116 54 224 4.3 11.3 0.00 0.00 0.00 95 1009.8
20260504033105 54 224 4.3 11.3 0.00 0.00 0.00 95 1009.8
20260504032609 54 242 7.8 11.3 0.00 0.00 0.00 95 1009.7
20260504032102 54 197 6.1 11.3 0.00 0.00 0.00 95 1009.7
20260504032031 54 197 7.8 11.3 0.00 0.00 0.00 95 1009.7
20260504031555 54 232 1.7 11.3 0.00 0.00 0.00 94 1009.6
20260504031514 54 232 1.7 11.3 0.00 0.00 0.00 94 1009.6
20260504031048 54 215 6.1 11.3 0.00 0.00 0.00 94 1009.6
20260504030957 54 208 7.0 11.3 0.00 0.00 0.00 94 1009.6
20260504030541 54 207 7.8 8.7 0.00 0.00 0.00 94 1009.4
20260504030441 54 239 6.1 8.7 0.00 0.00 0.00 94 1009.4
20260504030034 54 214 3.5 8.7 0.00 0.00 0.00 93 1009.4
20260504025922 54 214 5.2 8.7 0.00 0.00 0.00 93 1009.4
20260504025527 54 183 2.6 8.7 0.00 0.00 0.00 93 1009.4
20260504025406 54 155 1.7 8.7 0.00 0.00 0.00 93 1009.3
20260504025020 55 210 7.0 8.7 0.00 0.00 0.00 92 1009.4
20260504024849 55 210 7.0 13.0 0.00 0.00 0.00 92 1009.4
20260504024514 55 212 6.1 13.0 0.00 0.00 0.00 92 1009.3
20260504024006 55 211 3.5 13.0 0.00 0.00 0.00 92 1009.2
20260504023814 55 222 2.6 13.0 0.00 0.00 0.00 91 1009.3
20260504023459 55 201 7.0 13.0 0.00 0.00 0.00 91 1009.2
20260504023258 55 207 8.7 13.0 0.00 0.00 0.00 91 1009.3
20260504022952 55 217 7.0 8.7 0.00 0.00 0.00 90 1009.2
20260504022740 55 211 3.5 7.0 0.00 0.00 0.00 90 1009.2
20260504022445 55 200 2.6 7.0 0.00 0.00 0.00 90 1009.2
20260504022224 55 203 5.2 7.0 0.00 0.00 0.00 90 1009.2
20260504021938 55 228 3.5 7.0 0.00 0.00 0.00 90 1009.1
20260504021707 55 239 2.6 7.0 0.00 0.00 0.00 89 1009.1
20260504021431 55 239 2.6 7.0 0.00 0.00 0.00 89 1009.2
20260504021150 55 211 4.3 6.1 0.00 0.00 0.00 88 1009.1
20260504020924 55 284 1.7 4.3 0.00 0.00 0.00 88 1009.0
20260504020632 56 268 5.2 9.6 0.00 0.00 0.00 88 1009.0
20260504020116 56 198 3.5 9.6 0.00 0.00 0.00 87 1008.9
20260504015910 56 198 3.5 9.6 0.00 0.00 0.00 87 1008.9
20260504015559 56 212 4.3 9.6 0.00 0.00 0.00 87 1008.8
20260504015403 56 250 1.7 9.6 0.00 0.00 0.00 87 1008.8
20260504015041 56 184 7.0 9.6 0.00 0.00 0.00 86 1008.8
20260504014856 56 201 3.5 9.6 0.00 0.00 0.00 86 1008.7
20260504014524 56 253 2.6 9.6 0.00 0.00 0.00 86 1008.6
20260504014348 56 0 0.0 9.6 0.00 0.00 0.00 85 1008.6
20260504014007 57 187 4.3 7.8 0.00 0.00 0.00 85 1008.4
20260504013842 57 239 0.9 7.8 0.00 0.00 0.00 85 1008.5
20260504013450 57 190 3.5 7.8 0.00 0.00 0.00 84 1008.4
20260504013335 57 271 5.2 7.0 0.00 0.00 0.00 84 1008.4
20260504012933 57 229 2.6 7.8 0.00 0.00 0.00 84 1008.6
20260504012827 57 263 3.5 7.8 0.00 0.00 0.00 84 1008.6
20260504012416 57 257 2.6 7.8 0.00 0.00 0.00 83 1008.6
20260504012321 57 257 1.7 7.8 0.00 0.00 0.00 83 1008.6
20260504011859 58 245 0.9 7.8 0.00 0.00 0.00 82 1008.5
20260504010829 59 194 4.3 7.0 0.00 0.00 0.00 81 1008.4
20260504010308 59 0 0.0 6.1 0.00 0.00 0.00 80 1008.5
20260504010252 59 191 4.3 6.1 0.00 0.00 0.00 80 1008.5
20260504005748 59 200 5.2 9.6 0.00 0.00 0.00 80 1008.4
20260504005234 60 193 4.3 9.6 0.00 0.00 0.00 79 1008.4
20260504004731 60 271 4.3 9.6 0.00 0.00 0.00 78 1008.4
20260504004717 60 271 2.6 9.6 0.00 0.00 0.00 78 1008.4
20260504004224 60 218 6.1 9.6 0.00 0.00 0.00 78 1008.3
20260504004200 60 218 7.0 9.6 0.00 0.00 0.00 78 1008.4
20260504003717 60 205 3.5 7.8 0.00 0.00 0.00 78 1008.4
20260504003644 60 205 6.1 7.8 0.00 0.00 0.00 78 1008.4
20260504003210 60 173 4.3 6.1 0.00 0.00 0.00 77 1008.4
20260504003126 60 175 6.1 6.1 0.00 0.00 0.00 77 1008.4
20260504002609 61 211 2.6 6.1 0.00 0.00 0.00 76 1008.4
20260504002156 61 196 3.5 8.7 0.00 0.00 0.00 75 1008.6
20260504002052 61 196 3.5 8.7 0.00 0.00 0.00 75 1008.6
20260504001649 62 229 4.3 8.7 0.00 0.00 0.00 75 1008.7
20260504001535 62 210 4.3 8.7 0.00 0.00 0.00 75 1008.6
20260504001143 62 170 5.2 8.7 0.00 0.00 0.00 75 1008.7
20260504001018 62 170 6.1 8.7 0.00 0.00 0.00 74 1008.7
20260504000635 62 191 6.1 7.8 0.00 0.00 0.00 73 1008.7
20260504000501 62 205 3.5 7.8 0.00 0.00 0.00 73 1008.8
20260504000128 62 245 3.5 7.8 0.00 0.00 0.00 73 1008.7
20260503235944 62 243 1.7 7.8 0.00 0.00 0.00 73 1008.7
20260503235621 62 182 3.5 7.8 0.00 0.00 0.00 72 1008.8
20260503235428 63 182 7.0 7.8 0.00 0.00 0.00 71 1008.8
20260503235114 63 208 5.2 8.7 0.00 0.00 0.00 70 1008.8
20260503234910 64 208 5.2 8.7 0.00 0.00 0.00 69 1008.8
20260503234608 64 264 3.5 8.7 0.00 0.00 0.00 68 1008.6
20260503234353 65 274 1.7 8.7 0.00 0.00 0.00 67 1008.6
20260503234100 66 247 2.6 8.7 0.00 0.00 0.00 66 1008.6
20260503233836 66 229 1.7 8.7 0.00 0.00 0.00 65 1008.5
20260503233553 67 208 7.0 8.7 0.00 0.00 0.00 65 1008.6
20260503233319 68 243 5.2 7.8 0.00 0.00 0.00 65 1008.6
20260503233046 68 268 5.2 7.8 0.00 0.00 0.00 64 1008.6
20260503232802 68 0 3.5 7.8 0.00 0.00 0.00 64 1008.6
20260503232539 68 263 1.7 7.8 0.00 0.00 0.00 65 1008.5
20260503232032 69 252 2.6 7.8 0.00 0.00 0.00 64 1008.6
20260503231728 69 197 3.5 7.8 0.00 0.00 0.00 64 1008.6
20260503231525 69 197 7.0 7.8 0.00 0.00 0.00 64 1008.6
20260503231211 69 249 4.3 7.0 0.00 0.00 0.00 64 1008.7
20260503231018 69 215 3.5 7.0 0.00 0.00 0.00 63 1008.6
20260503230654 70 228 4.3 7.0 0.00 0.00 0.00 64 1008.7
20260503230511 70 228 5.2 7.0 0.00 0.00 0.00 63 1008.6
20260503230004 70 303 5.2 7.0 0.00 0.00 0.00 62 1008.4
20260503225620 70 184 1.7 4.3 0.00 0.00 0.00 62 1008.4
20260503225457 70 190 1.7 4.3 0.00 0.00 0.00 62 1008.5
20260503224950 70 287 2.6 4.3 0.00 0.00 0.00 62 1008.5
20260503224546 70 280 1.7 4.3 0.00 0.00 0.00 62 1008.5
20260503224443 70 263 1.7 3.5 0.00 0.00 0.00 62 1008.5
20260503224029 70 254 1.7 7.0 0.00 0.00 0.00 63 1008.5
20260503223936 70 254 3.5 7.0 0.00 0.00 0.00 63 1008.6
20260503223512 70 294 2.6 7.0 0.00 0.00 0.00 63 1008.5
20260503223429 69 294 0.9 7.0 0.00 0.00 0.00 63 1008.5
20260503222955 69 291 0.9 7.0 0.00 0.00 0.00 62 1008.7
20260503222923 69 264 0.9 7.0 0.00 0.00 0.00 62 1008.7
20260503222438 69 277 3.5 5.2 0.00 0.00 0.00 62 1008.7
20260503222416 70 277 4.3 5.2 0.00 0.00 0.00 62 1008.8
20260503221921 69 278 4.3 5.2 0.00 0.00 0.00 63 1008.9
20260503221908 70 168 2.6 5.2 0.00 0.00 0.00 63 1008.9
20260503221404 69 249 1.7 5.2 0.00 0.00 0.00 63 1008.9
20260503221401 69 249 2.6 5.2 0.00 0.00 0.00 63 1008.7
20260503220854 69 238 1.7 4.3 0.00 0.00 0.00 63 1008.8
20260503220847 69 238 1.7 4.3 0.00 0.00 0.00 62 1008.8
20260503220347 69 298 3.5 4.3 0.00 0.00 0.00 62 1008.9
20260503220331 69 312 0.9 4.3 0.00 0.00 0.00 62 1008.9
20260503215840 69 295 0.9 4.3 0.00 0.00 0.00 61 1009.0
20260503215813 69 295 2.6 4.3 0.00 0.00 0.00 61 1009.0
20260503215334 70 287 1.7 4.3 0.00 0.00 0.00 60 1009.0
20260503215256 70 289 3.5 4.3 0.00 0.00 0.00 61 1009.0
20260503214826 71 284 2.6 4.3 0.00 0.00 0.00 60 1008.9
20260503214739 71 273 3.5 4.3 0.00 0.00 0.00 61 1008.9
20260503214320 71 284 2.6 2.6 0.00 0.00 0.00 61 1008.9
20260503214222 71 247 0.9 2.6 0.00 0.00 0.00 61 1008.9
20260503213812 71 0 0.0 4.3 0.00 0.00 0.00 61 1009.0
20260503213705 71 296 0.9 4.3 0.00 0.00 0.00 62 1009.0
20260503213305 71 0 0.0 4.3 0.00 0.00 0.00 61 1009.0
20260503213148 71 236 1.7 4.3 0.00 0.00 0.00 62 1009.0
20260503212758 71 0 0.0 4.3 0.00 0.00 0.00 62 1008.9
20260503212631 71 302 3.5 4.3 0.00 0.00 0.00 62 1008.9
20260503212251 71 303 1.7 4.3 0.00 0.00 0.00 63 1009.0
20260503211744 70 289 1.7 3.5 0.00 0.00 0.00 64 1009.1
20260503211557 70 289 1.7 3.5 0.00 0.00 0.00 64 1009.1
20260503211237 70 301 1.7 3.5 0.00 0.00 0.00 64 1009.2
20260503211040 69 301 1.7 3.5 0.00 0.00 0.00 64 1009.2
20260503210730 69 261 1.7 3.5 0.00 0.00 0.00 65 1009.0
20260503210523 69 261 3.5 3.5 0.00 0.00 0.00 65 1009.1
20260503210223 68 278 1.7 3.5 0.00 0.00 0.00 66 1009.1
20260503210006 68 278 0.9 3.5 0.00 0.00 0.00 66 1009.2
20260503205716 68 278 0.9 3.5 0.00 0.00 0.00 65 1009.2
20260503205449 68 0 0.0 3.5 0.00 0.00 0.00 66 1009.3
20260503205209 67 316 1.7 3.5 0.00 0.00 0.00 66 1009.4
20260503204932 67 316 1.7 3.5 0.00 0.00 0.00 66 1009.3
20260503204702 67 233 0.9 2.6 0.00 0.00 0.00 66 1009.3
20260503204415 67 253 2.6 4.3 0.00 0.00 0.00 65 1009.3
20260503204155 67 260 3.5 4.3 0.00 0.00 0.00 66 1009.4
20260503203858 67 288 2.6 4.3 0.00 0.00 0.00 66 1009.4
20260503203648 67 329 1.7 4.3 0.00 0.00 0.00 66 1009.5
20260503203341 67 329 2.6 4.3 0.00 0.00 0.00 66 1009.5
20260503203142 67 271 1.7 4.3 0.00 0.00 0.00 66 1009.5
20260503202824 67 285 2.6 4.3 0.00 0.00 0.00 66 1009.5
20260503202634 67 337 2.6 3.5 0.00 0.00 0.00 66 1009.6
20260503202307 67 252 2.6 2.6 0.00 0.00 0.00 66 1009.4
20260503202127 68 299 1.7 6.1 0.00 0.00 0.00 66 1009.4
20260503201750 68 285 1.7 6.1 0.00 0.00 0.00 66 1009.5
20260503201620 68 285 3.5 6.1 0.00 0.00 0.00 66 1009.4
20260503201233 68 267 1.7 6.1 0.00 0.00 0.00 66 1009.5
20260503200716 67 274 2.6 6.1 0.00 0.00 0.00 66 1009.6
20260503200606 67 274 2.6 6.1 0.00 0.00 0.00 66 1009.6
20260503200159 67 280 3.5 5.2 0.00 0.00 0.00 66 1009.6
20260503200059 67 280 1.7 5.2 0.00 0.00 0.00 67 1009.6
20260503195642 67 261 1.7 5.2 0.00 0.00 0.00 67 1009.6
20260503195552 67 261 1.7 5.2 0.00 0.00 0.00 67 1009.6
20260503195125 67 239 2.6 5.2 0.00 0.00 0.00 67 1009.7
20260503195045 67 239 3.5 5.2 0.00 0.00 0.00 67 1009.7
20260503194608 67 268 1.7 4.3 0.00 0.00 0.00 67 1009.7
20260503194538 67 268 1.7 4.3 0.00 0.00 0.00 68 1009.5
20260503194052 67 267 3.5 4.3 0.00 0.00 0.00 68 1009.6
20260503194031 67 267 3.5 4.3 0.00 0.00 0.00 68 1009.6
20260503193524 67 333 0.9 4.3 0.00 0.00 0.00 68 1009.7
20260503193018 68 292 2.6 4.3 0.00 0.00 0.00 68 1009.7
20260503192500 68 261 1.7 2.6 0.00 0.00 0.00 68 1009.7
20260503192003 68 261 0.9 2.6 0.00 0.00 0.00 69 1009.8
20260503191943 68 261 0.9 2.6 0.00 0.00 0.00 70 1009.8
20260503191426 67 0 0.0 0.0 0.00 0.00 0.00 70 1009.8
20260503190949 67 0 0.0 4.3 0.00 0.00 0.00 71 1009.8
20260503190909 67 0 0.0 4.3 0.00 0.00 0.00 71 1009.8
20260503190442 66 257 1.7 4.3 0.00 0.00 0.00 71 1009.9
20260503190352 66 257 2.6 4.3 0.00 0.00 0.00 71 1009.9
20260503185835 66 246 2.6 4.3 0.00 0.00 0.00 71 1009.8
20260503185428 66 280 4.3 4.3 0.00 0.00 0.00 72 1009.8
20260503185318 66 235 0.9 4.3 0.00 0.00 0.00 72 1009.8
20260503184921 65 0 0.0 4.3 0.00 0.00 0.00 73 1009.9
20260503184801 65 0 0.0 4.3 0.00 0.00 0.00 72 1009.9
20260503184414 65 0 0.0 4.3 0.00 0.00 0.00 72 1009.9
20260503183907 65 340 1.7 4.3 0.00 0.00 0.00 72 1010.0
20260503183727 65 322 4.3 4.3 0.00 0.00 0.00 72 1009.8
20260503183400 65 0 0.0 0.0 0.00 0.00 0.00 73 1009.9
20260503182853 64 0 0.0 2.6 0.00 0.00 0.00 73 1010.0
20260503182653 64 0 0.0 2.6 0.00 0.00 0.00 73 1010.0
20260503182346 64 0 0.0 2.6 0.00 0.00 0.00 73 1010.1
20260503182136 64 278 0.9 2.6 0.00 0.00 0.00 73 1010.1
20260503181839 64 0 0.0 2.6 0.00 0.00 0.00 72 1010.2
20260503181619 64 0 0.0 2.6 0.00 0.00 0.00 72 1010.1
20260503181332 64 0 0.0 2.6 0.00 0.00 0.00 73 1010.1
20260503181102 64 278 2.6 2.6 0.00 0.00 0.00 73 1010.2
20260503180825 64 0 0.0 2.6 0.00 0.00 0.00 73 1010.2
20260503180545 64 0 0.0 2.6 0.00 0.00 0.00 74 1010.2
20260503180318 64 0 0.0 2.6 0.00 0.00 0.00 74 1010.2
20260503180028 64 0 0.0 2.6 0.00 0.00 0.00 74 1010.2
20260503175811 64 0 0.0 2.6 0.00 0.00 0.00 73 1010.2
20260503175511 64 282 1.7 2.6 0.00 0.00 0.00 74 1010.1
20260503175305 64 282 2.6 2.6 0.00 0.00 0.00 74 1010.1
20260503174954 64 280 0.9 3.5 0.00 0.00 0.00 74 1010.1
20260503174757 64 0 0.0 3.5 0.00 0.00 0.00 74 1010.1
20260503174437 64 263 0.9 3.5 0.00 0.00 0.00 74 1010.1
20260503174250 64 0 0.0 3.5 0.00 0.00 0.00 75 1010.1
20260503173920 64 0 0.0 3.5 0.00 0.00 0.00 75 1010.1
20260503173743 64 274 1.7 3.5 0.00 0.00 0.00 75 1010.1
20260503173403 64 274 1.7 3.5 0.00 0.00 0.00 75 1010.2
20260503173236 64 0 0.0 0.0 0.00 0.00 0.00 75 1010.1
20260503172846 63 0 0.0 4.3 0.00 0.00 0.00 76 1010.0
20260503172729 63 0 0.0 4.3 0.00 0.00 0.00 76 1010.1
20260503172331 63 0 0.0 4.3 0.00 0.00 0.00 76 1010.0
20260503172222 63 295 0.9 4.3 0.00 0.00 0.00 76 1010.0
20260503171812 63 295 2.6 4.3 0.00 0.00 0.00 76 1010.1
20260503171715 63 285 1.7 4.3 0.00 0.00 0.00 76 1010.1
20260503171255 63 0 0.0 4.3 0.00 0.00 0.00 77 1010.0
20260503171208 63 221 0.9 4.3 0.00 0.00 0.00 77 1010.1
20260503170738 63 268 3.5 4.3 0.00 0.00 0.00 77 1010.0
20260503170701 63 268 1.7 4.3 0.00 0.00 0.00 77 1010.0
20260503170221 63 198 1.7 4.3 0.00 0.00 0.00 78 1010.1
20260503170154 63 198 3.5 4.3 0.00 0.00 0.00 78 1010.1
20260503150920 58 0 0.0 0.0 0.00 0.00 0.00 100 1009.7
20260503150607 58 0 0.0 0.0 0.00 0.00 0.00 100 1009.7
20260503150413 57 0 0.0 0.0 0.00 0.00 0.00 100 1009.7
20260503140242 50 0 0.0 0.0 0.00 0.00 0.00 100 1009.6
20260503131139 48 0 0.0 0.0 0.00 0.00 0.00 100 1009.7
20260503130953 48 0 0.0 0.0 0.00 0.00 0.00 100 1009.7
20260503130632 48 0 0.0 0.0 0.00 0.00 0.00 100 1009.6
20260503130435 48 0 0.0 0.0 0.00 0.00 0.00 100 1009.6
20260503130124 48 0 0.0 0.0 0.00 0.00 0.00 100 1009.6
20260503110822 48 0 0.0 0.0 0.00 0.00 0.00 100 1009.9
20260503110344 48 0 0.0 0.0 0.00 0.00 0.00 100 1009.8
20260503110304 48 0 0.0 0.0 0.00 0.00 0.00 100 1009.9
20260503100219 48 0 0.0 0.0 0.00 0.00 0.00 100 1010.0
20260503090133 49 0 0.0 0.0 0.00 0.00 0.00 100 1010.5
20260503081452 50 0 0.0 0.0 0.00 0.00 0.00 100 1010.8
20260503081400 50 0 0.0 0.0 0.00 0.00 0.00 100 1010.7
20260503080945 50 0 0.0 0.0 0.00 0.00 0.00 99 1010.6
20260503080843 50 0 0.0 0.0 0.00 0.00 0.00 100 1010.7
20260503080438 50 0 0.0 0.0 0.00 0.00 0.00 99 1010.7
20260503080326 50 0 0.0 0.0 0.00 0.00 0.00 99 1010.7
20260503072849 51 0 0.0 0.0 0.00 0.00 0.00 99 1011.0
20260503072627 51 0 0.0 0.0 0.00 0.00 0.00 99 1011.0
20260503072342 51 0 0.0 0.0 0.00 0.00 0.00 99 1011.2
20260503072111 51 0 0.0 0.0 0.00 0.00 0.00 99 1011.2
20260503071835 51 0 0.0 0.0 0.00 0.00 0.00 99 1011.1
20260503071553 51 0 0.0 0.0 0.00 0.00 0.00 99 1011.3
20260503071328 51 0 0.0 0.0 0.00 0.00 0.00 99 1011.2